TimeCST,TemperatureF,Dew PointF,Humidity,Sea Level PressureIn,VisibilityMPH,Wind Direction,Wind SpeedMPH,Gust SpeedMPH,PrecipitationIn,Events,Conditions,WindDirDegrees,DateUTC
12:07 AM,14.0,10.4,86,29.90,3.0,North,11.5,-,0.00,Snow,Light Snow,350,2013-02-22 06:07:00
12:53 AM,12.9,10.0,88,30.03,5.0,North,11.5,-,0.00,,Mostly Cloudy,350,2013-02-22 06:53:00
1:10 AM,12.2,10.4,92,29.90,5.0,North,11.5,-,N/A,,Mostly Cloudy,350,2013-02-22 07:10:00
1:53 AM,12.2,10.4,92,29.90,7.0,North,13.8,-,N/A,,Mostly Cloudy,350,2013-02-22 07:53:00
2:01 AM,12.2,10.4,92,29.90,9.0,North,12.7,-,N/A,,Mostly Cloudy,350,2013-02-22 08:01:00
2:53 AM,12.9,10.0,88,30.04,10.0,NNW,10.4,-,N/A,,Mostly Cloudy,330,2013-02-22 08:53:00
3:53 AM,12.0,8.1,84,30.02,10.0,NNW,11.5,-,N/A,,Partly Cloudy,330,2013-02-22 09:53:00
4:53 AM,10.9,7.0,84,30.02,10.0,NNW,10.4,-,N/A,,Partly Cloudy,330,2013-02-22 10:53:00
5:53 AM,10.9,7.0,84,30.03,10.0,NNW,13.8,-,N/A,,Mostly Cloudy,330,2013-02-22 11:53:00
6:53 AM,10.9,7.0,84,30.05,9.0,NW,10.4,-,N/A,,Overcast,310,2013-02-22 12:53:00
7:53 AM,10.0,6.1,84,30.06,10.0,NNW,9.2,-,N/A,,Clear,330,2013-02-22 13:53:00
8:53 AM,12.0,7.0,80,30.07,10.0,NNW,15.0,-,N/A,,Clear,330,2013-02-22 14:53:00
9:53 AM,15.1,9.0,77,30.07,10.0,NW,11.5,-,N/A,,Clear,320,2013-02-22 15:53:00
10:53 AM,17.1,10.0,74,30.07,10.0,NNW,13.8,-,N/A,,Clear,330,2013-02-22 16:53:00
11:53 AM,18.0,10.0,71,30.09,10.0,NW,16.1,-,N/A,,Clear,310,2013-02-22 17:53:00
12:53 PM,19.0,10.9,71,30.10,10.0,WNW,11.5,-,N/A,,Clear,300,2013-02-22 18:53:00
1:53 PM,19.9,12.0,71,30.07,10.0,NW,16.1,-,N/A,,Clear,310,2013-02-22 19:53:00
2:53 PM,21.0,12.9,71,30.07,10.0,NW,13.8,-,N/A,,Clear,310,2013-02-22 20:53:00
3:53 PM,21.9,12.0,66,30.06,10.0,WNW,9.2,-,N/A,,Clear,300,2013-02-22 21:53:00
4:53 PM,19.9,12.9,74,30.06,10.0,NW,6.9,-,N/A,,Clear,310,2013-02-22 22:53:00
5:53 PM,19.0,12.0,74,30.07,10.0,WNW,4.6,-,N/A,,Clear,300,2013-02-22 23:53:00
6:53 PM,12.0,9.0,88,30.08,10.0,WSW,3.5,-,N/A,,Clear,250,2013-02-23 00:53:00
7:53 PM,10.0,6.1,84,30.09,10.0,WSW,3.5,-,N/A,,Clear,250,2013-02-23 01:53:00
8:53 PM,3.0,1.9,95,30.08,10.0,Calm,Calm,-,N/A,,Clear,0,2013-02-23 02:53:00
9:53 PM,1.0,-2.0,87,30.08,10.0,Calm,Calm,-,N/A,,Clear,0,2013-02-23 03:53:00
10:53 PM,1.9,-0.9,88,30.06,4.0,Calm,Calm,-,N/A,,Clear,0,2013-02-23 04:53:00
11:02 PM,1.4,-0.4,92,29.92,1.5,Calm,Calm,-,N/A,,Clear,0,2013-02-23 05:02:00
11:05 PM,1.4,-0.4,92,29.92,0.8,Calm,Calm,-,N/A,,Clear,0,2013-02-23 05:05:00
11:33 PM,1.4,-0.4,92,29.90,0.2,Calm,Calm,-,N/A,Fog,Light Freezing Fog,0,2013-02-23 05:33:00
11:49 PM,3.2,1.4,92,29.90,1.5,Calm,Calm,-,N/A,,Partly Cloudy,0,2013-02-23 05:49:00
11:53 PM,6.1,3.0,87,30.04,3.0,Calm,Calm,-,N/A,,Partly Cloudy,0,2013-02-23 05:53:00